Weather History for VIDP - February, 2014

Change the Weather History Date:

Friday, February 7, 2014

  Actual Average Record
Temperature  
Mean Temperature 68 °F -  
Max Temperature 77 °F 75 °F 77 °F (2014)
Min Temperature 60 °F 53 °F 50 °F (2015)
Cooling Degree Days 4    
Growing Degree Days 18 (Base 50)    
Moisture  
Dew Point 57 °F    
Average Humidity 72    
Maximum Humidity 88    
Minimum Humidity 47    
Precipitation  
Precipitation 0.00 in - - ()
Sea Level Pressure  
Sea Level Pressure 29.80 in    
Wind  
Wind Speed 8 mph ()    
Max Wind Speed 17 mph    
Max Gust Speed 21 mph    
Visibility 1.7 miles    
Events      
Averages and records for this station are not official NWS values.
T = Trace of Precipitation, MM = Missing Value Source: Averaged Metar Reports

Daily Weather History Graph

Daily Weather History Graph

Search for Another Location

Airport or City:

Trip Planner

Search our weather history database for the weather conditions in past years. The results will help you decide how hot, cold, wet, or windy it might be!

Date:

Astronomy

Feb. 07, 2014 Rise Set
Actual Time 7:06 AM IST 6:05 PM IST
Civil Twilight 6:41 AM IST 6:29 PM IST
Nautical Twilight 6:13 AM IST 6:57 PM IST
Astronomical Twilight 5:45 AM IST 7:25 PM IST
Moon 12:01 PM IST (2/7) 12:52 AM IST (2/7)
Length of Visible Light 11h 48m
Length of Day
10h 59m
First Quarter, 55% of the Moon is Illuminated
Feb 7
First Quarter
Feb 15
Full
Feb 22
Last Quarter
Mar 1
New
Mar 8
First Quarter

Hourly Weather History & Observations

Time (IST) Temp. Dew Point Humidity Pressure Visibility Wind Dir Wind Speed Gust Speed Precip Events Conditions
12:00 AM 64.4 °F 57.2 °F 77% 29.83 in 1.7 mi SE 6.9 mph - N/A   Mostly Cloudy
12:30 AM 64.4 °F 57.2 °F 77% 29.83 in 1.7 mi SE 6.9 mph - N/A   Mostly Cloudy
1:00 AM 62.6 °F 57.2 °F 82% 29.80 in 1.6 mi ESE 6.9 mph - N/A   Mostly Cloudy
1:30 AM 62.6 °F 57.2 °F 82% 29.80 in 1.7 mi ESE 6.9 mph - N/A   Mostly Cloudy
2:00 AM 62.6 °F 57.2 °F 82% 29.80 in 1.7 mi ESE 6.9 mph - N/A   Mostly Cloudy
2:30 AM 62.6 °F 57.2 °F 82% 29.80 in 1.7 mi ESE 8.1 mph - N/A   Scattered Clouds
3:30 AM 62.6 °F 53.6 °F 72% 29.77 in 2.2 mi SE 8.1 mph - N/A   Scattered Clouds
4:00 AM 62.6 °F 53.6 °F 72% 29.77 in 2.2 mi SE 8.1 mph - N/A   Scattered Clouds
4:30 AM 62.6 °F 53.6 °F 72% 29.77 in 2.2 mi SE 8.1 mph - N/A   Scattered Clouds
5:00 AM 62.6 °F 55.4 °F 77% 29.77 in 2.2 mi SE 6.9 mph - N/A   Scattered Clouds
5:30 AM 60.8 °F 55.4 °F 82% 29.77 in 2.2 mi SE 5.8 mph - N/A   Scattered Clouds
6:00 AM 60.8 °F 55.4 °F 82% 29.77 in - SE 5.8 mph - N/A   Scattered Clouds
6:30 AM 60.8 °F 55.4 °F 82% 29.80 in - SSE 5.8 mph - N/A   Scattered Clouds
7:30 AM 60.8 °F 55.4 °F 82% 29.80 in 1.6 mi SE 6.9 mph - N/A   Scattered Clouds
8:00 AM 62.6 °F 59.0 °F 88% 29.80 in 1.7 mi South 9.2 mph - N/A   Scattered Clouds
8:30 AM 62.6 °F 59.0 °F 88% 29.83 in 1.7 mi SSE 10.4 mph - N/A   Scattered Clouds
9:30 AM 66.2 °F 57.2 °F 73% 29.83 in 2.2 mi SSE 17.3 mph - N/A   Smoke
10:00 AM 68.0 °F 57.2 °F 68% 29.83 in 2.5 mi SSE 9.2 mph 20.7 mph N/A   Smoke
10:30 AM 69.8 °F 57.2 °F 64% 29.83 in - South 13.8 mph - N/A   Smoke
11:00 AM 71.6 °F 57.2 °F 60% 29.83 in - South 12.7 mph - N/A   Haze
11:30 AM 73.4 °F 55.4 °F 53% 29.83 in - SSE 11.5 mph - N/A   Haze
12:00 PM 73.4 °F 55.4 °F 53% 29.83 in - South 11.5 mph - N/A   Haze
12:30 PM 73.4 °F 57.2 °F 57% 29.80 in - SSW 10.4 mph - N/A   Haze
1:00 PM 73.4 °F 57.2 °F 57% 29.80 in - SSW 9.2 mph - N/A   Haze
1:30 PM 75.2 °F 59.0 °F 57% 29.80 in - SSW 9.2 mph - N/A   Haze
2:00 PM 77.0 °F 59.0 °F 54% 29.77 in - SW 8.1 mph - N/A   Haze
2:30 PM 77.0 °F 57.2 °F 50% 29.77 in - WSW 9.2 mph - N/A   Haze
3:00 PM 77.0 °F 55.4 °F 47% 29.74 in - West 10.4 mph - N/A   Haze
3:30 PM 77.0 °F 55.4 °F 47% 29.74 in - West 11.5 mph - N/A   Haze
4:00 PM 77.0 °F 55.4 °F 47% 29.77 in - WNW 11.5 mph - N/A   Haze
4:30 PM 75.2 °F 57.2 °F 53% 29.77 in 2.8 mi WNW 13.8 mph - N/A   Haze
5:00 PM 73.4 °F 57.2 °F 57% 29.77 in 2.2 mi WNW 12.7 mph - N/A   Haze
5:30 PM 71.6 °F 59.0 °F 64% 29.77 in - NW 11.5 mph - N/A   Haze
6:00 PM 69.8 °F 60.8 °F 73% 29.77 in - WNW 9.2 mph - N/A   Haze
7:00 PM 66.2 °F 62.6 °F 88% 29.80 in 1.5 mi NW 10.4 mph - N/A   Smoke
7:30 PM 66.2 °F 62.6 °F 88% 29.80 in 1.3 mi NW 9.2 mph - N/A   Smoke
8:00 PM 66.2 °F 62.6 °F 88% 29.83 in 1.2 mi NW 11.5 mph - N/A   Smoke
8:30 PM 64.4 °F 59.0 °F 83% 29.83 in 1.1 mi NW 11.5 mph - N/A   Mostly Cloudy
9:00 PM 62.6 °F 59.0 °F 88% 29.83 in 1.1 mi NW 11.5 mph - N/A   Mostly Cloudy
9:30 PM 62.6 °F 59.0 °F 88% 29.83 in 1.1 mi NW 10.4 mph - N/A   Mostly Cloudy
10:00 PM 62.6 °F 59.0 °F 88% 29.86 in 1.0 mi NW 8.1 mph - N/A   Mostly Cloudy
11:30 PM 60.8 °F 57.2 °F 88% 29.86 in 0.9 mi West 8.1 mph - N/A   Mostly Cloudy